Regional Weather Roundup
Issued by NWS Northern Indiana

Home | Current Version | Previous Version | Text Only | Print | Product List | Glossary Off
Versions: 1 2 3 4 5 6 7 8 9 10 11 12 13 14 15 16 17 18 19 20 21 22 23 24 25 26 27 28 29 30 31 32 33 34 35 36 37 38 39 40 41 42 43 44 45 46 47 48 49 50

000
ASUS43 KIWX 220900
RWRIWX

KIWX WEATHER ROUNDUP
NATIONAL WEATHER SERVICE NORTHERN INDIANA
500 AM EDT TUE JUL 22 2014

NOTE: "FAIR" INDICATES FEW OR NO CLOUDS BELOW 12,000 FEET WITH NO
SIGNIFICANT WEATHER AND/OR OBSTRUCTIONS TO VISIBILITY.

* THESE STATIONS ARE NOT UNDER NWS QUALITY CONTROL. THEY ALSO MAY NOT
  REPORT WEATHER SUCH AS PRECIPITATION OR FOG.

INZ001>027-221000-
NORTHERN INDIANA

CITY           SKY/WX    TMP DP  RH WIND       PRES   REMARKS
GARY*          CLEAR     68  65  90 CALM      30.07S
VALPARAISO     CLEAR     66  63  90 CALM      30.09S
SOUTH BEND     CLEAR     67  61  81 CALM      30.09S
GOSHEN         CLEAR     65  62  90 CALM      30.10R
MONTICELLO*    FOG       61  61  99 CALM      30.08S VSB 1/2
ANGOLA*        CLEAR     63  63 100 CALM      30.11S
FORT WAYNE     CLEAR     64  61  90 CALM      30.11R
PERU/GRISSOM   CLEAR     65  65 100 CALM      30.10R

$$
INZ028>050-221000-
CENTRAL INDIANA

CITY           SKY/WX    TMP DP  RH WIND       PRES   REMARKS
LAFAYETTE      FOG       64  64 100 CALM      30.09R VSB 1/4
KOKOMO*        CLEAR     63  61  94 CALM      30.10F
MUNCIE*        CLEAR     64  60  87 CALM      30.10S
INDIANAPOLIS   CLEAR     70  62  76 CALM      30.09S

$$
MIZ043>046-050>051-056>058-064>065-071>073-077>080-221000-
SOUTHWEST LOWER MICHIGAN

CITY           SKY/WX    TMP DP  RH WIND       PRES   REMARKS
BATTLE CREEK   CLEAR     67  63  87 S3        30.10S
BENTON HARBOR  CLEAR     64  62  93 SE3       30.07S
COLDWATER*     CLEAR     68  64  86 SE5       30.10F
HILLSDALE*     CLEAR     64  63  97 S3        30.12S
HOLLAND        CLEAR     66  64  93 S5        30.07S FOG
GRAND RAPIDS   CLEAR     67  64  90 S7        30.07S
KALAMAZOO      CLEAR     64  62  93 SE5       30.09S
STURGIS*       CLEAR     63  63 100 CALM      30.10R
THREE RIVERS*    N/A     64  64 100 CALM      30.10S FOG

$$
OHZ001>008-015>018-024>025-221000-
NORTHWEST OHIO

CITY           SKY/WX    TMP DP  RH WIND       PRES   REMARKS
DEFIANCE       CLEAR     64  61  90 CALM      30.11R FOG
FINDLAY        CLEAR     69  62  78 CALM      30.10R
TOLEDO EXPRESS CLEAR     62  59  90 CALM      30.11R
TOLEDO METCALF CLEAR     67  58  72 CALM      30.11S
LIMA           CLEAR     67  63  87 CALM      30.11R FOG

$$
&&



USA.gov is the U.S. government's official web portal to all federal, state and local government web resources and services.